DW8462 Weather Reports


Display with metric or nautical units.
time (UTC)temp
F
wind
direction
speed
MPH
gust
MPH
rain 1hr
in
rain 24hr
in
rain mn
in
humidity
%
barometer
mb
20221002233040 60 25 7.0 11.0 0.00 0.00 0.00 69 1026.1
20221002231540 62 32 5.0 9.0 0.00 0.00 0.00 66 1025.9
20221002230038 63 31 6.0 11.0 0.00 0.00 0.00 62 1025.9
20221002224542 65 27 6.0 12.0 0.00 0.00 0.00 62 1025.9
20221002223038 66 360 6.0 10.0 0.00 0.00 0.00 59 1025.7
20221002221546 67 51 6.0 13.0 0.00 0.00 0.00 57 1025.7
20221002220033 67 360 9.0 15.0 0.00 0.00 0.00 53 1025.8
20221002214533 68 29 10.0 17.0 0.00 0.00 0.00 51 1025.8
20221002213036 69 360 9.0 16.0 0.00 0.00 0.00 52 1025.7
20221002211530 69 16 10.0 17.0 0.00 0.00 0.00 51 1025.7
20221002210031 69 11 10.0 15.0 0.00 0.00 0.00 51 1025.6
20221002204533 70 32 10.0 14.0 0.00 0.00 0.00 54 1025.6
20221002203102 70 32 11.0 17.0 0.00 0.00 0.00 57 1025.7
20221002201557 70 9 11.0 16.0 0.00 0.00 0.00 57 1025.7
20221002200054 70 360 11.0 16.0 0.00 0.00 0.00 57 1025.6
20221002194555 70 27 8.0 18.0 0.00 0.00 0.00 57 1025.6
20221002193053 71 31 10.0 16.0 0.00 0.00 0.00 57 1025.7
20221002191555 71 36 9.0 17.0 0.00 0.00 0.00 58 1025.8
20221002190050 71 16 8.0 13.0 0.00 0.00 0.00 58 1025.9
20221002184551 71 360 8.0 14.0 0.00 0.00 0.00 58 1026.0
20221002183056 71 28 8.0 14.0 0.00 0.00 0.00 58 1026.2
20221002181547 71 34 8.0 15.0 0.00 0.00 0.00 59 1026.5
20221002180015 70 48 6.0 15.0 0.00 0.00 0.00 59 1026.5
20221002174513 69 20 7.0 14.0 0.00 0.00 0.00 60 1026.7
20221002173017 69 355 7.0 12.0 0.00 0.00 0.00 61 1026.8
20221002171505 68 57 6.0 10.0 0.00 0.00 0.00 63 1027.0
20221002170003 67 24 7.0 13.0 0.00 0.00 0.00 65 1027.2
20221002164502 67 355 5.0 10.0 0.00 0.00 0.00 67 1027.2
20221002163033 66 34 4.0 10.0 0.00 0.00 0.00 69 1027.3
20221002161527 65 16 6.0 9.0 0.00 0.00 0.00 72 1027.4
20221002160055 64 19 6.0 9.0 0.00 0.00 0.00 73 1027.3
20221002154550 63 53 6.0 13.0 0.00 0.00 0.00 75 1027.1
20221002153045 62 44 6.0 10.0 0.00 0.00 0.00 78 1027.1
20221002151541 62 34 4.0 8.0 0.00 0.00 0.00 79 1026.9
20221002150040 61 70 5.0 11.0 0.00 0.00 0.00 80 1026.9
20221002144535 60 55 7.0 10.0 0.00 0.00 0.00 83 1026.8
20221002143029 59 67 6.0 10.0 0.00 0.00 0.00 86 1026.6
20221002141525 58 75 8.0 13.0 0.00 0.00 0.00 88 1026.4
20221002140022 56 74 5.0 10.0 0.00 0.00 0.00 91 1026.4
20221002134518 55 63 6.0 11.0 0.00 0.00 0.00 93 1026.3
20221002133016 54 57 4.0 9.0 0.00 0.00 0.00 94 1026.3
20221002131509 53 360 5.0 9.0 0.00 0.00 0.00 94 1026.2
20221002130010 51 20 4.0 7.0 0.00 0.00 0.00 95 1026.1
20221002124502 50 360 4.0 6.0 0.00 0.00 0.00 94 1025.9
20221002123116 49 11 4.0 6.0 0.00 0.00 0.00 94 1025.7
20221002121559 48 360 3.0 6.0 0.00 0.00 0.00 94 1025.6
20221002120133 47 13 4.0 6.0 0.00 0.00 0.00 94 1025.4
20221002114553 47 13 4.0 6.0 0.00 0.00 0.00 93 1025.2
20221002113051 48 13 3.0 5.0 0.00 0.00 0.00 93 1025.0
20221002111549 48 11 3.0 6.0 0.00 0.00 0.00 93 1024.9
20221002110047 48 12 3.0 6.0 0.00 0.00 0.00 94 1024.7
20221002104548 49 9 4.0 6.0 0.00 0.00 0.00 94 1024.6
20221002103041 48 360 3.0 6.0 0.00 0.00 0.00 94 1024.4
20221002101536 48 355 3.0 5.0 0.00 0.00 0.00 94 1024.3
20221002100034 49 355 2.0 5.0 0.00 0.00 0.00 94 1024.2
20221002064513 51 349 2.0 5.0 0.00 0.00 0.00 92 1023.4
20221002063013 50 360 1.0 5.0 0.00 0.00 0.00 92 1023.4
20221002061510 50 355 1.0 4.0 0.00 0.00 0.00 91 1023.3
20221002060009 50 355 3.0 5.0 0.00 0.00 0.00 91 1023.4
20221002054506 50 355 2.0 6.0 0.00 0.00 0.00 89 1023.4
20221002053004 51 360 3.0 7.0 0.00 0.00 0.00 89 1023.4
20221002051601 51 11 4.0 7.0 0.00 0.00 0.00 88 1023.5
20221002050110 51 360 4.0 6.0 0.00 0.00 0.00 88 1023.5
20221002044601 51 351 4.0 8.0 0.00 0.00 0.00 87 1023.6
20221002043058 51 360 4.0 7.0 0.00 0.00 0.00 86 1023.7
20221002041527 51 360 4.0 7.0 0.00 0.00 0.00 85 1023.6
20221002040026 51 360 4.0 7.0 0.00 0.00 0.00 84 1023.5
20221002034522 51 350 3.0 6.0 0.00 0.00 0.00 83 1023.4
20221002033021 51 360 3.0 6.0 0.00 0.00 0.00 81 1023.3
20221002031519 52 360 4.0 7.0 0.00 0.00 0.00 81 1023.3
20221002030027 52 349 2.0 5.0 0.00 0.00 0.00 80 1023.1
20221002024517 53 349 3.0 7.0 0.00 0.00 0.00 78 1023.1
20221002023032 54 360 5.0 9.0 0.00 0.00 0.00 79 1023.0
20221002021515 54 351 4.0 7.0 0.00 0.00 0.00 78 1022.9
20221002020014 54 355 4.0 7.0 0.00 0.00 0.00 77 1022.8
20221002011510 55 9 2.0 6.0 0.00 0.00 0.00 73 1022.3
20221002010013 55 360 3.0 6.0 0.00 0.00 0.00 73 1022.2
20221002004513 54 360 3.0 6.0 0.00 0.00 0.00 72 1022.1
20221002003008 54 20 3.0 5.0 0.00 0.00 0.00 69 1022.0
20221002001506 55 22 3.0 4.0 0.00 0.00 0.00 65 1021.9
20221002000019 56 22 2.0 5.0 0.00 0.00 0.00 61 1021.8
20221001234502 59 22 3.0 4.0 0.00 0.00 0.00 56 1021.8